GEFSSE_500_meanwind_222.txt.gz
Wind_Speed
2 2 1 1 1 2 2 2 2 2 2 3 3 3 3 3 4 5 6 6 5 6 5 5 5 7 7 7 6 7 6 6 6 6 6 6 6 6 6 7 7 6 6
2 2 2 2 2 3 3 3 2 3 3 3 3 3 3 3 4 5 7 6 6 6 6 6 6 6 7 7 7 7 7 7 7 7 7 7 7 6 6 7 7 6 6
2 2 2 2 3 3 4 4 4 3 3 4 4 4 4 4 4 4 6 6 7 7 7 6 6 7 7 7 8 8 8 7 8 7 8 8 7 7 8 7 7 7 7
2 3 2 2 3 4 4 4 4 4 4 4 4 4 4 4 4 4 4 6 7 7 6 6 7 7 8 8 8 8 8 8 8 8 8 8 8 7 8 7 7 8 8
3 3 2 3 3 4 4 4 4 4 4 4 5 5 5 4 5 5 5 5 7 7 7 6 6 6 7 7 7 8 9 9 9 9 9 8 8 7 8 8 8 8 8
3 3 3 3 4 4 5 5 4 4 4 4 4 5 5 4 5 5 5 5 5 5 5 5 6 6 7 8 8 8 8 9 9 9 9 9 8 9 9 9 9 8 8
3 2 3 3 4 4 4 4 4 4 5 5 4 4 4 4 4 5 5 5 5 5 5 5 5 6 7 8 8 8 9 9 9 9 9 9 9 10 10 10 10 10 10
3 3 3 4 4 4 4 4 4 4 4 5 5 5 4 4 4 4 4 5 5 6 6 5 6 7 7 8 9 9 9 9 9 9 9 9 10 10 11 11 11 12 12
3 3 3 3 4 4 4 4 4 5 5 5 5 5 5 4 4 5 5 5 6 6 6 6 6 7 7 8 8 8 9 9 10 9 9 9 10 11 11 12 12 13 13
3 3 3 3 3 3 3 4 4 4 5 5 5 5 5 5 5 5 5 6 6 7 7 7 6 8 8 8 8 8 9 10 10 10 9 9 10 10 11 11 12 12 13
2 3 3 3 3 3 3 3 3 4 4 4 4 5 5 5 5 6 6 6 6 6 6 6 6 7 8 8 8 9 9 10 10 11 11 10 11 11 11 10 11 11 12
3 3 2 2 2 3 3 3 4 4 4 4 4 4 5 5 5 6 6 6 6 6 6 6 7 8 8 8 8 8 9 10 10 10 11 11 11 12 12 11 11 10 11
3 3 2 2 2 2 3 3 4 4 4 4 4 4 5 5 5 5 5 6 6 6 6 6 7 7 8 8 8 8 8 9 10 10 11 11 12 12 12 12 12 11 11
3 3 2 2 2 2 2 3 3 3 4 4 4 4 5 5 5 5 5 5 6 6 6 7 7 7 8 8 8 9 9 9 9 10 10 10 11 12 12 13 12 12 12
2 2 2 2 2 2 2 3 3 3 3 4 4 5 4 5 5 5 6 6 6 6 6 6 6 7 7 7 8 9 9 9 9 9 10 10 11 11 11 12 13 12 12
3 3 3 3 2 2 2 2 3 3 3 4 4 4 4 4 4 5 5 6 5 5 5 5 6 6 6 7 8 9 9 9 8 8 8 9 10 10 10 11 11 12 12
4 4 4 4 3 2 2 3 3 3 3 3 3 4 4 4 4 5 5 5 6 6 5 5 5 5 6 7 7 8 8 8 8 9 8 9 9 9 10 10 10 11 11
4 4 4 5 4 3 3 3 3 2 2 2 2 3 4 4 4 4 5 5 5 5 5 5 5 5 5 5 6 7 7 7 7 7 7 6 7 7 8 9 9 10 11
4 5 5 5 4 4 4 3 3 2 2 2 2 3 3 3 4 4 4 4 5 5 5 5 5 5 4 5 6 6 6 6 7 7 7 7 6 7 7 7 7 8 9
4 5 5 5 5 5 4 3 3 3 3 3 4 4 4 4 4 4 4 4 5 4 4 5 5 5 5 5 5 5 5 6 6 6 6 7 7 7 7 8 8 8 8
4 5 5 5 5 5 4 3 3 3 4 4 4 4 5 4 4 4 4 4 4 4 4 4 4 4 4 5 5 4 5 5 5 5 5 6 6 7 7 7 7 7 7
5 5 5 6 5 5 4 4 4 4 4 4 4 4 5 5 4 4 3 3 3 4 4 4 5 4 5 5 5 4 4 4 4 5 5 5 5 5 5 6 6 6 7
5 5 6 5 5 5 4 4 4 4 4 5 5 4 4 4 4 4 3 3 3 4 4 4 5 5 4 5 5 5 5 4 4 4 5 5 4 4 4 5 5 6 6
6 6 6 6 6 5 4 5 5 4 4 5 5 5 5 4 4 4 4 4 4 4 4 4 5 5 4 4 5 5 5 4 4 4 5 4 4 4 4 5 6 6 7
7 7 6 6 6 5 5 6 5 5 5 5 5 5 5 4 4 4 4 4 4 4 4 4 5 5 5 5 5 5 4 5 5 4 5 5 5 5 5 6 6 7 8
7 7 7 7 6 6 6 6 6 6 6 6 5 5 5 5 5 5 5 4 5 5 4 4 5 5 6 5 4 4 4 5 4 5 5 5 5 6 7 8 8 8 8

GEFSSE_500_meanwind_228.txt.gz
Wind_Speed
1 1 1 1 2 2 2 2 1 1 1 1 1 2 2 2 3 3 3 3 4 3 3 4 4 5 5 5 5 4 4 5 5 4 5 5 4 5 6 7 7 6 5
1 1 2 2 2 2 2 2 2 2 2 2 2 2 2 3 3 3 4 4 4 4 4 4 5 5 6 6 5 5 5 6 6 6 5 6 5 6 6 7 8 7 6
2 2 3 3 3 2 2 3 2 2 3 3 3 3 3 2 2 3 4 4 5 5 4 5 5 5 5 6 6 6 6 6 6 7 6 6 7 7 6 7 8 8 7
2 3 3 3 3 3 3 3 3 3 3 3 4 4 3 3 3 3 4 4 4 5 5 6 6 5 6 6 7 7 7 7 7 7 7 7 7 7 7 7 8 8 8
3 3 3 4 4 4 3 3 3 3 3 3 3 4 4 3 3 3 3 4 4 4 4 5 6 5 6 7 7 7 7 8 8 8 7 8 8 8 8 8 8 9 9
3 3 3 4 4 3 3 3 3 4 3 4 3 4 3 3 3 3 3 3 4 5 5 5 6 6 6 7 7 7 8 8 8 8 8 8 8 9 8 9 9 10 10
3 3 4 4 4 4 4 4 3 3 3 4 4 4 4 4 4 4 3 4 4 5 5 6 6 6 7 7 8 8 8 8 8 8 9 9 9 9 9 9 10 10 11
3 3 3 4 4 4 4 3 3 3 3 4 4 4 4 4 4 4 4 4 4 5 5 6 7 7 7 7 8 8 8 8 9 9 9 9 9 10 10 10 10 11 11
2 2 2 3 3 4 4 3 3 3 3 4 4 4 4 4 4 5 4 5 5 5 5 6 6 7 7 8 8 9 9 9 10 10 9 9 10 10 10 10 11 11 11
2 2 2 2 3 3 3 3 3 3 3 4 4 4 4 4 5 5 5 5 6 6 6 7 7 7 7 8 8 9 9 9 10 11 11 10 11 11 12 12 12 12 12
3 2 1 1 1 2 2 3 3 3 3 3 4 5 5 5 5 5 5 6 6 6 6 7 7 8 8 8 8 9 9 10 11 11 11 12 12 12 13 13 13 13 13
2 1 1 1 1 2 2 2 3 3 3 3 4 5 5 5 5 5 5 6 7 6 7 7 8 8 8 8 9 9 10 10 10 11 11 11 12 12 12 12 12 13 13
2 1 2 1 1 1 2 2 3 3 3 4 5 6 5 5 5 5 6 7 7 7 6 6 7 7 8 8 9 9 10 10 10 11 11 11 11 12 12 13 13 12 12
3 2 1 1 1 1 2 3 3 3 4 4 4 5 5 5 5 5 6 6 7 7 6 6 6 7 8 8 9 9 10 10 10 11 11 12 12 12 12 13 12 12 13
3 3 2 2 1 2 3 3 4 4 3 3 4 4 5 5 5 5 6 6 6 6 6 6 7 7 7 8 9 10 10 10 11 11 11 11 11 11 11 12 13 13 13
3 3 2 2 2 2 3 3 4 4 3 4 4 3 4 5 5 5 6 7 6 6 6 6 6 7 8 8 8 9 10 10 10 10 11 11 11 11 11 11 12 12 12
3 3 2 2 2 2 3 3 3 3 3 3 4 4 4 5 5 5 6 7 7 7 6 6 7 7 7 8 7 8 9 10 10 10 10 10 10 10 10 11 11 11 11
3 3 3 2 2 2 2 3 3 3 3 4 4 4 4 5 5 5 6 6 6 6 6 6 6 7 7 8 8 8 9 10 10 9 9 9 9 9 9 10 10 11 11
3 3 3 3 3 3 2 3 3 4 4 4 4 4 4 4 4 5 5 5 5 6 6 6 6 6 7 7 7 7 8 8 8 8 8 8 8 8 9 9 9 10 10
3 3 4 4 4 3 3 4 4 5 5 4 4 3 3 3 4 4 4 5 5 5 6 6 6 6 6 6 6 7 7 6 6 7 7 8 8 8 8 8 8 9 10
3 3 4 4 5 4 4 4 5 5 5 5 4 4 4 3 4 3 4 4 4 5 5 6 6 6 5 5 6 6 6 6 7 7 7 7 8 8 8 8 8 9 9
4 4 4 4 4 4 4 5 5 5 5 5 5 5 4 4 4 4 4 4 4 5 5 5 5 5 5 6 6 6 6 6 7 7 7 7 7 7 7 7 7 8 9
5 5 5 5 5 5 5 5 5 5 5 6 6 5 4 4 4 4 4 4 5 5 5 5 5 5 5 5 6 6 6 6 6 6 6 6 7 7 7 7 7 7 8
6 5 6 6 6 6 6 5 6 6 6 6 6 5 5 5 5 4 5 5 5 5 5 5 6 6 6 6 6 6 6 6 6 7 7 7 7 7 7 8 8 8 8
6 6 6 6 6 7 7 7 7 7 7 7 7 6 6 6 5 5 5 6 6 6 6 6 6 6 6 6 6 6 5 6 6 7 7 7 8 8 7 8 8 8 8
6 6 7 7 7 7 8 7 7 7 7 8 7 7 7 7 7 7 6 6 6 6 6 6 6 6 6 6 6 6 6 6 6 6 7 7 8 8 9 9 9 9 8

GEFSSE_500_meanwind_234.txt.gz
Wind_Speed
2 3 2 2 2 2 2 2 3 4 4 4 4 4 4 4 5 6 5 6 6 6 6 6 5 5 5 4 4 4 4 4 4 4 6 7 7 7 7 7 7 6 6
3 3 3 3 3 3 2 3 3 4 4 5 5 5 5 5 5 5 5 5 6 6 6 6 6 5 5 5 5 5 4 5 5 5 6 6 7 7 8 8 8 8 8
4 4 4 4 4 4 3 3 3 3 4 4 5 5 5 5 5 5 5 5 5 6 5 5 5 5 5 5 5 6 6 6 6 6 6 6 6 7 8 8 9 9 9
4 4 4 4 5 5 5 4 4 4 4 5 5 5 5 5 6 6 5 6 6 6 6 6 6 6 5 5 5 6 7 7 7 7 7 7 7 8 8 8 9 10 10
3 3 4 4 5 5 5 5 5 5 5 5 5 5 5 6 6 6 6 6 7 7 7 7 6 7 6 6 6 6 6 7 7 7 7 8 8 8 8 9 10 11 11
3 3 4 4 5 5 5 6 6 6 6 5 5 6 5 6 6 6 6 6 7 7 7 7 7 7 7 7 7 7 7 7 7 8 8 8 9 9 9 10 10 11 12
4 4 4 5 5 5 5 5 6 5 6 6 6 6 6 6 6 6 6 5 6 7 7 7 7 7 7 7 8 8 8 8 8 8 8 9 9 9 9 10 11 11 11
4 4 4 4 5 5 5 5 5 6 6 6 5 6 6 6 6 6 6 6 6 6 7 7 7 7 7 7 7 8 9 9 9 9 10 10 10 10 10 11 11 12 13
4 5 4 4 5 5 5 5 5 5 6 6 6 6 6 6 6 7 6 6 6 6 6 6 7 7 8 8 8 8 8 8 9 9 10 10 11 11 12 11 12 12 13
4 5 4 4 5 5 5 5 5 5 6 6 6 6 6 6 6 6 6 6 7 7 6 5 6 7 8 8 8 7 8 8 9 9 9 10 11 11 12 12 12 13 13
3 3 4 3 4 4 5 4 5 5 5 6 6 6 6 6 6 6 6 7 7 8 7 7 7 8 8 8 8 8 9 8 9 9 10 10 11 11 12 13 13 14 14
2 2 3 3 4 4 4 4 4 4 5 6 7 7 7 7 7 7 7 7 7 7 8 7 8 8 8 8 9 9 9 10 10 10 10 11 11 12 13 13 13 13 14
1 2 3 3 3 4 4 3 3 4 5 5 6 6 7 7 7 8 8 7 7 7 7 7 7 8 8 9 9 9 10 10 11 11 11 11 11 12 13 14 14 14 14
2 3 2 2 3 3 3 3 3 3 4 5 5 6 7 7 8 8 8 8 7 7 7 8 7 8 8 8 8 9 9 10 11 11 12 12 13 12 13 14 14 13 13
3 3 2 2 3 3 3 3 3 3 3 4 6 6 7 7 7 7 7 6 7 7 7 7 7 7 8 8 9 9 9 9 10 10 12 12 13 13 13 13 13 13 12
3 2 2 2 2 3 3 3 3 3 3 4 5 5 5 7 7 6 7 6 7 7 7 8 8 8 8 8 9 9 9 9 9 10 11 12 12 13 13 12 12 12 12
3 3 2 2 3 3 3 3 3 3 3 4 4 4 5 6 6 7 6 6 6 6 7 7 8 8 8 9 9 8 8 9 10 11 11 11 12 12 12 11 11 12 12
3 3 3 3 3 3 3 3 2 2 2 3 3 4 5 5 6 7 6 5 6 6 6 6 6 7 8 8 8 8 9 9 10 11 11 11 11 11 11 11 11 12 12
3 3 3 3 3 3 3 2 2 3 2 2 2 3 4 4 5 5 6 5 6 6 6 6 6 7 8 8 9 9 9 9 9 10 10 10 10 10 10 11 11 11 11
3 3 3 3 3 3 3 3 3 3 3 2 2 3 3 3 4 4 5 5 5 6 6 6 6 6 7 8 9 9 9 9 8 8 8 9 9 9 9 9 9 9 10
4 4 4 4 3 3 3 3 3 3 3 3 3 3 3 3 4 4 4 5 5 6 6 6 6 6 6 7 8 8 9 8 8 8 8 8 9 9 9 8 8 9 9
4 4 4 4 4 4 3 3 3 3 4 4 4 4 4 4 4 4 5 5 5 6 6 6 6 6 7 6 7 8 8 8 8 7 7 7 8 8 9 8 8 8 9
5 4 4 5 5 4 4 4 4 4 4 5 5 5 4 5 5 5 5 5 5 5 5 5 6 6 7 7 7 7 7 6 6 6 6 7 7 7 8 8 8 8 8
5 5 5 5 5 5 5 5 5 5 5 6 6 5 5 6 6 6 6 6 6 5 5 6 6 6 7 7 7 6 6 6 6 5 6 6 7 7 8 8 8 8 8
6 5 5 6 6 5 6 6 5 5 6 6 6 6 6 6 6 6 6 6 6 6 6 7 7 7 6 6 7 6 6 6 6 5 6 6 6 7 8 8 8 8 8
7 6 6 6 6 6 6 6 6 6 6 6 6 6 6 7 7 7 7 7 7 7 8 8 8 7 7 6 6 6 7 6 6 6 6 6 6 7 7 8 8 8 8

GEFSSE_500_meanwind_240.txt.gz
Wind_Speed
5 5 5 5 5 5 5 5 5 6 6 6 6 5 5 5 5 6 7 7 7 7 7 6 5 5 4 4 4 3 3 3 4 4 5 6 6 6 6 5 6 5 5
5 5 6 6 5 5 5 5 6 5 5 6 6 6 6 6 6 6 7 7 7 7 7 7 6 6 5 5 4 4 4 4 4 4 5 6 7 7 6 6 6 7 6
5 5 6 6 6 6 6 6 6 6 6 6 6 6 6 6 6 6 6 7 6 7 7 7 7 6 6 5 5 5 5 5 5 5 5 6 7 7 7 7 7 7 7
6 6 6 6 6 6 7 7 7 7 7 7 7 7 7 6 6 6 6 7 6 6 6 6 7 6 6 6 5 5 5 6 6 6 6 6 7 7 7 8 7 8 8
6 6 5 6 6 7 7 8 8 8 7 7 7 7 7 7 7 6 7 7 7 7 6 6 6 6 6 6 6 6 5 5 5 6 6 6 7 7 8 8 8 9 10
6 6 6 6 6 6 7 7 8 8 7 7 7 7 7 7 7 7 7 7 7 7 7 7 7 6 6 6 6 6 6 6 6 6 7 7 7 7 8 9 9 9 9
6 7 6 7 6 7 7 7 7 7 7 7 7 7 7 7 7 7 8 8 7 8 8 8 7 7 7 6 7 7 7 7 7 7 7 8 8 9 9 10 9 9 9
7 7 6 7 6 6 6 6 7 7 6 6 6 6 6 6 7 7 8 8 7 7 7 8 8 8 8 7 7 7 7 7 8 8 9 9 9 10 9 10 10 10 10
7 7 7 7 7 7 6 6 6 6 6 6 6 6 5 5 6 6 6 6 7 7 7 7 8 8 8 8 8 8 8 8 8 8 9 9 10 11 11 10 10 10 10
7 6 7 7 7 7 7 6 6 6 6 6 7 7 6 6 6 6 6 6 7 7 7 8 8 8 8 8 8 8 8 8 8 8 9 9 10 11 12 12 12 12 11
6 6 6 7 6 6 6 5 6 6 6 6 7 6 6 6 6 6 6 7 7 7 8 8 8 7 8 8 8 8 8 8 8 9 9 9 9 11 12 13 13 13 13
6 6 6 5 5 5 5 5 5 6 6 6 6 6 6 6 6 6 7 7 7 7 8 8 8 8 8 7 7 7 7 8 8 8 8 9 9 10 11 12 13 14 14
6 6 6 5 5 5 5 5 5 5 5 6 6 6 6 6 7 7 7 7 7 7 7 8 8 7 8 8 8 8 9 8 9 9 9 10 10 10 11 12 13 14 14
6 5 5 5 5 5 5 5 4 5 5 6 6 6 7 7 7 8 8 7 7 7 7 8 8 8 8 8 8 8 8 9 9 10 10 11 11 11 12 13 13 14 14
6 5 6 6 5 5 5 5 4 4 5 5 6 6 6 7 7 7 7 7 7 6 7 7 7 7 8 8 8 9 9 9 10 10 10 11 11 12 12 12 13 14 15
6 5 6 6 6 5 5 5 5 5 5 5 6 6 7 7 7 7 7 7 7 7 7 7 7 8 8 8 8 8 9 10 10 10 10 11 11 12 12 12 12 12 13
6 6 6 6 6 5 5 5 5 6 5 6 6 6 6 6 6 6 6 7 7 7 7 7 7 8 8 8 8 9 9 10 10 10 10 10 11 11 11 11 11 11 11
7 6 6 6 6 6 5 5 5 5 5 6 6 6 6 6 5 6 6 6 6 6 6 7 7 7 8 8 8 9 9 9 9 9 10 10 10 10 10 10 10 10 10
6 6 6 6 6 6 5 4 5 5 5 5 4 4 4 4 5 5 5 5 6 6 6 6 7 7 8 8 8 9 9 8 8 9 10 10 9 9 10 10 10 11 10
6 6 6 6 6 6 5 5 5 5 5 5 4 4 4 4 5 4 4 5 5 4 5 6 6 7 8 8 8 9 9 8 9 9 9 9 9 9 10 10 10 10 10
6 6 6 6 6 6 5 5 5 5 5 5 5 5 5 5 5 5 5 6 5 5 5 6 6 7 7 8 8 8 8 8 8 9 8 8 8 9 8 9 9 9 10
6 6 6 6 6 6 6 6 6 6 6 5 5 5 5 5 5 5 6 6 6 6 7 7 7 8 7 7 7 8 8 8 8 8 8 8 8 8 8 8 8 9 9
7 7 7 7 7 7 7 7 7 7 6 6 6 6 5 6 6 6 6 6 6 6 7 7 7 8 7 7 7 7 8 8 8 8 8 7 7 7 7 8 8 8 9
7 7 7 7 7 7 7 7 7 7 7 7 7 6 6 6 6 6 6 6 6 6 7 7 7 7 7 7 8 8 8 8 7 7 7 7 7 7 8 8 9 9 8
8 8 8 8 8 8 7 7 7 7 7 7 8 7 7 7 7 7 7 7 7 7 7 7 7 7 7 7 7 8 8 8 8 7 7 7 7 8 8 8 9 9 9
9 9 8 8 8 8 8 7 8 8 8 8 8 8 8 8 8 8 8 8 8 8 8 8 8 8 8 8 8 8 8 8 8 8 8 8 8 8 8 9 10 10 11